Location: Gokavaram
(16.9752°N, 81.0696°E)
Time: 11:10:51
(UTC+00:00)

Atlas Centaur 2 - Pass Details

Date: 15 May 2026
Orbit: 456 x 1246 km, 30.4° (Epoch: 5 June)

Event Time Altitude Azimuth Distance (km) Brightness Sun altitude
Exits shadow 20:33:37 27° 9° (N) 1,970 4.3 -43.2°
Drops below altitude 10° 20:39:21 10° 55° (NE) 3,117 5.7 -42.3°
Sets 20:42:52 0° 66° (ENE) 4,142 6.5 -41.7°
